Weather History for KFDK - October, 2012

Change the Weather History Date:

Wednesday, October 24, 2012

  Actual Average (KHGR) Record (KHGR)
Temperature  
Mean Temperature 66 °F -  
Max Temperature 82 °F 59 °F 82 °F (2001)
Min Temperature 50 °F 41 °F 32 °F (1997)
Cooling Degree Days 1    
Growing Degree Days 16 (Base 50)    
Moisture  
Dew Point 54 °F    
Average Humidity 89    
Maximum Humidity 100    
Minimum Humidity 42    
Precipitation  
Precipitation 0.00 in - - ()
Sea Level Pressure  
Sea Level Pressure 30.12 in    
Wind  
Wind Speed 0 mph (WNW)    
Max Wind Speed 8 mph    
Max Gust Speed -    
Visibility 7 miles    
Events      
Averages and records for this station are not official NWS values.
T = Trace of Precipitation, MM = Missing Value Source: NWS Daily Summary

Daily Weather History Graph

Daily Weather History Graph

Search for Another Location

Airport or City:

Trip Planner

Search our weather history database for the weather conditions in past years. The results will help you decide how hot, cold, wet, or windy it might be!

Date:

Astronomy

Oct. 24, 2012 Rise Set
Actual Time 7:29 AM EDT 6:17 PM EDT
Civil Twilight 7:01 AM EDT 6:44 PM EDT
Nautical Twilight 6:30 AM EDT 7:16 PM EDT
Astronomical Twilight 5:59 AM EDT 7:47 PM EDT
Moon 3:30 PM EDT (10/24) 2:23 AM EDT (10/24)
Length of Visible Light 11h 42m
Length of Day
10h 47m
Waxing Gibbous, 76% of the Moon is Illuminated
Oct 24
Waxing Gibbous
Oct 29
Full
Nov 6
Last Quarter
Nov 13
New
Nov 20
First Quarter

Hourly Weather History & Observations

Time (EDT) Temp. Heat Index Dew Point Humidity Pressure Visibility Wind Dir Wind Speed Gust Speed Precip Events Conditions
12:00 AM 53.6 °F - 53.6 °F 100% 30.10 in 5.0 mi Calm Calm - N/A   Clear
12:20 AM 51.8 °F - 51.8 °F 100% 30.10 in 7.0 mi Calm Calm - N/A   Clear
12:40 AM 51.8 °F - 51.8 °F 100% 30.10 in 7.0 mi Calm Calm - N/A   Clear
1:00 AM 51.8 °F - 51.8 °F 100% 30.10 in 10.0 mi Calm Calm - N/A   Clear
1:25 AM 51.8 °F - 51.8 °F 100% 30.10 in 4.0 mi Calm Calm - N/A   Clear
2:05 AM 51.8 °F - 51.8 °F 100% 30.10 in 4.0 mi Calm Calm - N/A   Clear
2:25 AM 51.8 °F - 51.8 °F 100% 30.10 in 5.0 mi Calm Calm - N/A   Clear
2:50 AM 50.0 °F - 50.0 °F 100% 30.10 in 1.5 mi Calm Calm - N/A   Mist
3:10 AM 50.0 °F - 50.0 °F 100% 30.10 in 2.5 mi Calm Calm - N/A   Clear
3:30 AM 50.0 °F - 50.0 °F 100% 30.09 in 4.0 mi Calm Calm - N/A   Clear
3:55 AM 50.0 °F - 50.0 °F 100% 30.10 in 3.0 mi Calm Calm - N/A   Clear
4:15 AM 50.0 °F - 50.0 °F 100% 30.10 in 7.0 mi Calm Calm - N/A   Scattered Clouds
4:35 AM 50.0 °F - 50.0 °F 100% 30.10 in 2.5 mi Calm Calm - N/A   Scattered Clouds
4:55 AM 50.0 °F - 50.0 °F 100% 30.11 in 4.0 mi Calm Calm - N/A   Scattered Clouds
5:20 AM 50.0 °F - 50.0 °F 100% 30.11 in 4.0 mi Calm Calm - N/A   Clear
5:40 AM 50.0 °F - 50.0 °F 100% 30.11 in 3.0 mi Calm Calm - N/A   Clear
6:00 AM 50.0 °F - 50.0 °F 100% 30.12 in 7.0 mi Calm Calm - N/A   Clear
6:20 AM 50.0 °F - 50.0 °F 100% 30.12 in 3.0 mi Calm Calm - N/A   Clear
6:45 AM 50.0 °F - 50.0 °F 100% 30.13 in 4.0 mi Calm Calm - N/A   Clear
6:50 AM 50.0 °F - 50.0 °F 100% 30.13 in 4.0 mi Calm Calm - N/A   Clear
7:50 AM 51.8 °F - 51.8 °F 100% 30.14 in 10.0 mi Calm Calm - N/A   Clear
8:55 AM 55.4 °F - 55.4 °F 100% 30.16 in 10.0 mi Calm Calm - N/A   Clear
9:45 AM 57.2 °F - 57.2 °F 100% 30.16 in 10.0 mi North 3.5 mph - N/A   Clear
10:55 AM 66.2 °F - 60.8 °F 83% 30.15 in 10.0 mi Calm Calm - N/A   Clear
11:50 AM 69.8 °F - 60.8 °F 73% 30.15 in 10.0 mi Calm Calm - N/A   Clear
12:50 PM 73.4 °F - 60.8 °F 65% 30.13 in 10.0 mi West 5.8 mph - N/A   Clear
1:50 PM 80.6 °F 80.8 °F 57.2 °F 45% 30.11 in 10.0 mi West 8.1 mph - N/A   Scattered Clouds
2:52 PM 82.4 °F 82.0 °F 57.2 °F 42% 30.09 in 10.0 mi WNW 4.6 mph - N/A   Clear
3:50 PM 80.6 °F 80.5 °F 55.4 °F 42% 30.09 in 10.0 mi NW 4.6 mph - N/A   Clear
4:50 PM 77.0 °F - 55.4 °F 47% 30.09 in 10.0 mi Calm Calm - N/A   Clear
5:47 PM 75.2 °F - 57.2 °F 53% 30.10 in 10.0 mi Calm Calm - N/A   Clear
6:50 PM 64.4 °F - 57.2 °F 77% 30.11 in 10.0 mi Calm Calm - N/A   Clear
7:55 PM 60.8 °F - 57.2 °F 88% 30.12 in 10.0 mi Calm Calm - N/A   Clear
8:55 PM 60.8 °F - 57.2 °F 88% 30.13 in 10.0 mi Calm Calm - N/A   Overcast
9:15 PM 60.8 °F - 57.2 °F 88% 30.14 in 10.0 mi Calm Calm - N/A   Overcast
9:35 PM 60.8 °F - 57.2 °F 88% 30.14 in 10.0 mi Calm Calm - N/A   Overcast
9:55 PM 60.8 °F - 59.0 °F 94% 30.14 in 10.0 mi Calm Calm - N/A   Overcast
10:20 PM 60.8 °F - 57.2 °F 88% 30.14 in 10.0 mi Calm Calm - N/A   Overcast
10:40 PM 60.8 °F - 59.0 °F 94% 30.14 in 10.0 mi Calm Calm - N/A   Overcast
11:00 PM 60.8 °F - 57.2 °F 88% 30.14 in 10.0 mi Calm Calm - N/A   Overcast
11:20 PM 60.8 °F - 59.0 °F 94% 30.15 in 10.0 mi Calm Calm - N/A   Overcast
11:45 PM 60.8 °F - 57.2 °F 88% 30.15 in 10.0 mi Calm Calm - N/A   Overcast